Retour au catalogue

STARLINK-3645

ActifCommunicationsVLEO
NORAD 51986·PAYLOAD·🇺🇸 United States

Lancé Mar 9, 2022 depuis Cape Canaveral Space Force Station

Loading…

Prochains Passages (prochaines 24 heures)

TLE

FraisSource: CelesTrak SupGP

Époque: Sep 15, 2026, 02:29 UTC

1 51986C 22025AG  26258.10395833 -.00034111  00000+0 -97572-3 0  2587
2 51986  53.1575 260.6973 0001231  95.2901 275.8123 15.35422666    12

Suivez STARLINK-3645 en temps réel avec AllMySat

Download on the App Store